Time,TemperatureF,DewpointF,PressureIn,WindDirection,WindDirectionDegrees,WindSpeedMPH,WindSpeedGustMPH,Humidity,HourlyPrecipIn,Conditions,Clouds,dailyrainin,SolarRadiationWatts/m^2,SoftwareType,DateUTC
2013-01-18 00:12:00,35.0,-1.0,-100.00,West,267,10.0,17.0,21,0.00,,,0.00,0.000000,,2013-01-18 07:12:00,
2013-01-18 00:22:00,35.0,-1.0,-100.00,West,267,10.0,17.0,21,0.00,,,0.00,0.000000,,2013-01-18 07:22:00,
2013-01-18 00:32:00,35.0,-1.0,-100.00,West,267,10.0,17.0,21,0.00,,,0.00,0.000000,,2013-01-18 07:32:00,
2013-01-18 00:42:00,35.0,-1.0,-100.00,West,267,10.0,17.0,21,0.00,,,0.00,0.000000,,2013-01-18 07:42:00,
2013-01-18 01:12:00,36.0,-1.0,-100.00,West,273,7.0,19.0,20,0.00,,,0.00,0.000000,,2013-01-18 08:12:00,
2013-01-18 01:22:00,36.0,-1.0,-100.00,West,273,7.0,19.0,20,0.00,,,0.00,0.000000,,2013-01-18 08:22:00,
2013-01-18 01:32:00,36.0,-1.0,-100.00,West,273,7.0,19.0,20,0.00,,,0.00,0.000000,,2013-01-18 08:32:00,
2013-01-18 01:42:00,36.0,-1.0,-100.00,West,273,7.0,19.0,20,0.00,,,0.00,0.000000,,2013-01-18 08:42:00,
2013-01-18 02:12:00,37.0,-5.0,-100.00,WSW,256,8.0,13.0,16,0.00,,,0.00,0.000000,,2013-01-18 09:12:00,
2013-01-18 02:22:00,37.0,-5.0,-100.00,WSW,256,8.0,13.0,16,0.00,,,0.00,0.000000,,2013-01-18 09:22:00,
2013-01-18 02:33:00,37.0,-5.0,-100.00,WSW,256,8.0,13.0,16,0.00,,,0.00,0.000000,,2013-01-18 09:33:00,
2013-01-18 02:42:00,37.0,-5.0,-100.00,WSW,256,8.0,13.0,16,0.00,,,0.00,0.000000,,2013-01-18 09:42:00,
2013-01-18 03:12:00,34.0,-6.0,-100.00,West,266,10.0,15.0,17,0.00,,,0.00,0.000000,,2013-01-18 10:12:00,
2013-01-18 03:22:00,34.0,-6.0,-100.00,West,266,10.0,15.0,17,0.00,,,0.00,0.000000,,2013-01-18 10:22:00,
2013-01-18 03:32:00,34.0,-6.0,-100.00,West,266,10.0,15.0,17,0.00,,,0.00,0.000000,,2013-01-18 10:32:00,
2013-01-18 03:42:00,34.0,-6.0,-100.00,West,266,10.0,15.0,17,0.00,,,0.00,0.000000,,2013-01-18 10:42:00,
2013-01-18 04:12:00,32.0,-2.0,-100.00,West,265,11.0,15.0,23,0.00,,,0.00,0.000000,,2013-01-18 11:12:00,
2013-01-18 04:23:00,32.0,-2.0,-100.00,West,265,11.0,15.0,23,0.00,,,0.00,0.000000,,2013-01-18 11:23:00,
2013-01-18 04:32:00,32.0,-2.0,-100.00,West,265,11.0,15.0,23,0.00,,,0.00,0.000000,,2013-01-18 11:32:00,
2013-01-18 04:42:00,32.0,-2.0,-100.00,West,265,11.0,15.0,23,0.00,,,0.00,0.000000,,2013-01-18 11:42:00,
2013-01-18 05:12:00,36.0,2.0,-100.00,WSW,249,8.0,16.0,23,0.00,,,0.00,0.000000,,2013-01-18 12:12:00,
2013-01-18 05:22:00,36.0,2.0,-100.00,WSW,249,8.0,16.0,23,0.00,,,0.00,0.000000,,2013-01-18 12:22:00,
2013-01-18 05:33:00,36.0,2.0,-100.00,WSW,249,8.0,16.0,23,0.00,,,0.00,0.000000,,2013-01-18 12:33:00,
2013-01-18 05:43:00,36.0,2.0,-100.00,WSW,249,8.0,16.0,23,0.00,,,0.00,0.000000,,2013-01-18 12:43:00,
2013-01-18 06:12:00,36.0,-1.0,-100.00,NNW,338,7.0,13.0,20,0.00,,,0.00,0.000000,,2013-01-18 13:12:00,
2013-01-18 06:23:00,36.0,-1.0,-100.00,NNW,338,7.0,13.0,20,0.00,,,0.00,0.000000,,2013-01-18 13:23:00,
2013-01-18 06:33:00,36.0,-1.0,-100.00,NNW,338,7.0,13.0,20,0.00,,,0.00,0.000000,,2013-01-18 13:33:00,
2013-01-18 06:43:00,36.0,-1.0,-100.00,NNW,338,7.0,13.0,20,0.00,,,0.00,0.000000,,2013-01-18 13:43:00,
2013-01-18 07:12:00,35.0,-1.0,-100.00,NW,313,11.0,21.0,21,0.00,,,0.00,0.000000,,2013-01-18 14:12:00,
2013-01-18 07:23:00,35.0,-1.0,-100.00,NW,313,11.0,21.0,21,0.00,,,0.00,0.000000,,2013-01-18 14:23:00,
2013-01-18 07:33:00,35.0,-1.0,-100.00,NW,313,11.0,21.0,21,0.00,,,0.00,0.000000,,2013-01-18 14:33:00,
2013-01-18 07:42:00,35.0,-1.0,-100.00,NW,313,11.0,21.0,21,0.00,,,0.00,0.000000,,2013-01-18 14:42:00,
2013-01-18 08:13:00,35.0,3.0,-100.00,West,278,8.0,19.0,25,0.00,,,0.00,2.000000,,2013-01-18 15:13:00,
2013-01-18 08:23:00,35.0,3.0,-100.00,West,278,8.0,19.0,25,0.00,,,0.00,2.000000,,2013-01-18 15:23:00,
2013-01-18 08:33:00,35.0,3.0,-100.00,West,278,8.0,19.0,25,0.00,,,0.00,2.000000,,2013-01-18 15:33:00,
2013-01-18 08:43:00,35.0,3.0,-100.00,West,278,8.0,19.0,25,0.00,,,0.00,2.000000,,2013-01-18 15:43:00,
2013-01-18 09:12:00,37.0,3.0,-100.00,WNW,291,9.0,17.0,23,0.00,,,0.00,88.000000,,2013-01-18 16:12:00,
2013-01-18 09:23:00,37.0,3.0,-100.00,WNW,291,9.0,17.0,23,0.00,,,0.00,88.000000,,2013-01-18 16:23:00,
2013-01-18 09:33:00,37.0,3.0,-100.00,WNW,291,9.0,17.0,23,0.00,,,0.00,88.000000,,2013-01-18 16:33:00,
2013-01-18 09:42:00,37.0,3.0,-100.00,WNW,291,9.0,17.0,23,0.00,,,0.00,88.000000,,2013-01-18 16:42:00,
2013-01-18 10:13:00,37.0,0.0,-100.00,WNW,297,9.0,19.0,20,0.00,,,0.00,216.000000,,2013-01-18 17:13:00,
2013-01-18 10:23:00,37.0,0.0,-100.00,WNW,297,9.0,19.0,20,0.00,,,0.00,216.000000,,2013-01-18 17:23:00,
2013-01-18 10:33:00,37.0,0.0,-100.00,WNW,297,9.0,19.0,20,0.00,,,0.00,216.000000,,2013-01-18 17:33:00,
2013-01-18 10:42:00,37.0,0.0,-100.00,WNW,297,9.0,19.0,20,0.00,,,0.00,216.000000,,2013-01-18 17:42:00,
2013-01-18 11:13:00,40.0,3.0,-100.00,West,264,7.0,15.0,21,0.00,,,0.00,359.000000,,2013-01-18 18:13:00,
2013-01-18 11:23:00,40.0,3.0,-100.00,West,264,7.0,15.0,21,0.00,,,0.00,359.000000,,2013-01-18 18:23:00,
2013-01-18 11:33:00,40.0,3.0,-100.00,West,264,7.0,15.0,21,0.00,,,0.00,359.000000,,2013-01-18 18:33:00,
2013-01-18 11:43:00,40.0,3.0,-100.00,West,264,7.0,15.0,21,0.00,,,0.00,359.000000,,2013-01-18 18:43:00,
2013-01-18 12:12:00,40.0,0.0,-100.00,SSW,212,8.0,12.0,18,0.00,,,0.00,407.000000,,2013-01-18 19:12:00,
2013-01-18 12:23:00,40.0,0.0,-100.00,SSW,212,8.0,12.0,18,0.00,,,0.00,407.000000,,2013-01-18 19:23:00,
2013-01-18 12:33:00,40.0,0.0,-100.00,SSW,212,8.0,12.0,18,0.00,,,0.00,407.000000,,2013-01-18 19:33:00,
2013-01-18 12:43:00,40.0,0.0,-100.00,SSW,212,8.0,12.0,18,0.00,,,0.00,407.000000,,2013-01-18 19:43:00,
2013-01-18 13:13:00,43.0,0.0,-100.00,West,259,5.0,13.0,16,0.00,,,-99.99,501.000000,,2013-01-18 20:13:00,
2013-01-18 13:23:00,43.0,0.0,-100.00,West,259,5.0,13.0,16,0.00,,,-99.99,501.000000,,2013-01-18 20:23:00,
2013-01-18 13:33:00,43.0,0.0,-100.00,West,259,5.0,13.0,16,0.00,,,-99.99,501.000000,,2013-01-18 20:33:00,
2013-01-18 13:42:00,43.0,0.0,-100.00,West,259,5.0,13.0,16,0.00,,,-99.99,501.000000,,2013-01-18 20:42:00,
2013-01-18 14:13:00,40.0,-1.0,-100.00,West,267,7.0,14.0,17,0.00,,,0.00,508.000000,,2013-01-18 21:13:00,
2013-01-18 14:23:00,40.0,-1.0,-100.00,West,267,7.0,14.0,17,0.00,,,0.00,508.000000,,2013-01-18 21:23:00,
2013-01-18 14:33:00,40.0,-1.0,-100.00,West,267,7.0,14.0,17,0.00,,,0.00,508.000000,,2013-01-18 21:33:00,
2013-01-18 14:42:00,40.0,-1.0,-100.00,West,267,7.0,14.0,17,0.00,,,0.00,508.000000,,2013-01-18 21:42:00,
2013-01-18 15:12:00,38.0,-1.0,-100.00,West,277,10.0,16.0,19,0.00,,,0.00,221.000000,,2013-01-18 22:12:00,
2013-01-18 15:23:00,38.0,-1.0,-100.00,West,277,10.0,16.0,19,0.00,,,0.00,221.000000,,2013-01-18 22:23:00,
2013-01-18 15:33:00,38.0,-1.0,-100.00,West,277,10.0,16.0,19,0.00,,,0.00,221.000000,,2013-01-18 22:33:00,
2013-01-18 15:42:00,38.0,-1.0,-100.00,West,277,10.0,16.0,19,0.00,,,0.00,221.000000,,2013-01-18 22:42:00,
2013-01-18 16:12:00,37.0,0.0,-100.00,West,275,10.0,18.0,20,0.00,,,0.00,226.000000,,2013-01-18 23:12:00,
2013-01-18 16:22:00,37.0,0.0,-100.00,West,275,10.0,18.0,20,0.00,,,0.00,226.000000,,2013-01-18 23:22:00,
2013-01-18 16:33:00,37.0,0.0,-100.00,West,275,10.0,18.0,20,0.00,,,0.00,226.000000,,2013-01-18 23:33:00,
2013-01-18 16:43:00,37.0,0.0,-100.00,West,275,10.0,18.0,20,0.00,,,0.00,226.000000,,2013-01-18 23:43:00,
2013-01-18 17:12:00,35.0,-1.0,-100.00,West,270,7.0,15.0,21,0.00,,,0.00,82.000000,,2013-01-19 00:12:00,
2013-01-18 17:22:00,35.0,-1.0,-100.00,West,270,7.0,15.0,21,0.00,,,0.00,82.000000,,2013-01-19 00:22:00,
2013-01-18 17:33:00,35.0,-1.0,-100.00,West,270,7.0,15.0,21,0.00,,,0.00,82.000000,,2013-01-19 00:33:00,
2013-01-18 17:43:00,35.0,-1.0,-100.00,West,270,7.0,15.0,21,0.00,,,0.00,82.000000,,2013-01-19 00:43:00,
2013-01-18 18:12:00,35.0,-1.0,-100.00,West,271,9.0,16.0,21,0.00,,,0.00,5.000000,,2013-01-19 01:12:00,
2013-01-18 18:22:00,35.0,-1.0,-100.00,West,271,9.0,16.0,21,0.00,,,0.00,5.000000,,2013-01-19 01:22:00,
2013-01-18 18:32:00,35.0,-1.0,-100.00,West,271,9.0,16.0,21,0.00,,,0.00,5.000000,,2013-01-19 01:32:00,
2013-01-18 18:42:00,35.0,-1.0,-100.00,West,271,9.0,16.0,21,0.00,,,0.00,5.000000,,2013-01-19 01:42:00,
2013-01-18 19:12:00,33.0,0.0,-100.00,West,272,10.0,16.0,24,0.00,,,0.00,0.000000,,2013-01-19 02:12:00,
2013-01-18 19:22:00,33.0,0.0,-100.00,West,272,10.0,16.0,24,0.00,,,0.00,0.000000,,2013-01-19 02:22:00,
2013-01-18 19:33:00,33.0,0.0,-100.00,West,272,10.0,16.0,24,0.00,,,0.00,0.000000,,2013-01-19 02:33:00,
2013-01-18 19:42:00,33.0,0.0,-100.00,West,272,10.0,16.0,24,0.00,,,0.00,0.000000,,2013-01-19 02:42:00,
2013-01-18 20:12:00,34.0,3.0,-100.00,WNW,290,14.0,21.0,26,0.00,,,0.00,0.000000,,2013-01-19 03:12:00,
2013-01-18 20:22:00,34.0,3.0,-100.00,WNW,290,14.0,21.0,26,0.00,,,0.00,0.000000,,2013-01-19 03:22:00,
2013-01-18 20:33:00,34.0,3.0,-100.00,WNW,290,14.0,21.0,26,0.00,,,0.00,0.000000,,2013-01-19 03:33:00,
2013-01-18 20:43:00,34.0,3.0,-100.00,WNW,290,14.0,21.0,26,0.00,,,0.00,0.000000,,2013-01-19 03:43:00,
2013-01-18 21:12:00,34.0,4.0,-100.00,West,274,13.0,20.0,28,0.00,,,0.00,0.000000,,2013-01-19 04:12:00,
2013-01-18 21:22:00,34.0,4.0,-100.00,West,274,13.0,20.0,28,0.00,,,0.00,0.000000,,2013-01-19 04:22:00,
2013-01-18 21:32:00,34.0,4.0,-100.00,West,274,13.0,20.0,28,0.00,,,0.00,0.000000,,2013-01-19 04:32:00,
2013-01-18 21:42:00,34.0,4.0,-100.00,West,274,13.0,20.0,28,0.00,,,0.00,0.000000,,2013-01-19 04:42:00,
2013-01-18 22:12:00,33.0,2.0,-100.00,WNW,285,12.0,21.0,26,0.00,,,0.00,0.000000,,2013-01-19 05:12:00,
2013-01-18 22:23:00,33.0,2.0,-100.00,WNW,285,12.0,21.0,26,0.00,,,0.00,0.000000,,2013-01-19 05:23:00,
2013-01-18 22:33:00,33.0,2.0,-100.00,WNW,285,12.0,21.0,26,0.00,,,0.00,0.000000,,2013-01-19 05:33:00,
2013-01-18 22:42:00,33.0,2.0,-100.00,WNW,285,12.0,21.0,26,0.00,,,0.00,0.000000,,2013-01-19 05:42:00,
2013-01-18 23:12:00,32.0,3.0,-100.00,NW,306,12.0,21.0,29,0.00,,,0.00,0.000000,,2013-01-19 06:12:00,
2013-01-18 23:22:00,32.0,3.0,-100.00,NW,306,12.0,21.0,29,0.00,,,0.00,0.000000,,2013-01-19 06:22:00,
2013-01-18 23:32:00,32.0,3.0,-100.00,NW,306,12.0,21.0,29,0.00,,,0.00,0.000000,,2013-01-19 06:32:00,
2013-01-18 23:43:00,32.0,3.0,-100.00,NW,306,12.0,21.0,29,0.00,,,0.00,0.000000,,2013-01-19 06:43:00,